TimeAKST,TemperatureF,Dew PointF,Humidity,Sea Level PressureIn,VisibilityMPH,Wind Direction,Wind SpeedMPH,Gust SpeedMPH,PrecipitationIn,Events,Conditions,WindDirDegrees,DateUTC
12:56 AM,-18.0,-23.1,78,29.60,8.0,Calm,Calm,-,N/A,,Clear,0,2013-01-08 09:56:00
1:56 AM,-17.0,-23.1,74,29.63,10.0,Calm,Calm,-,N/A,,Clear,0,2013-01-08 10:56:00
2:56 AM,-18.0,-24.0,74,29.66,10.0,Calm,Calm,-,N/A,,Clear,0,2013-01-08 11:56:00
3:56 AM,-18.9,-24.0,78,29.70,10.0,ENE,3.5,-,N/A,,Clear,70,2013-01-08 12:56:00
4:38 AM,-18.4,-25.6,70,29.66,10.0,Calm,Calm,-,N/A,,Scattered Clouds,0,2013-01-08 13:38:00
4:47 AM,-16.6,-23.8,70,29.67,9.0,Calm,Calm,-,N/A,,Mostly Cloudy,0,2013-01-08 13:47:00
4:56 AM,-18.0,-23.1,78,29.73,10.0,Calm,Calm,-,N/A,,Mostly Cloudy,0,2013-01-08 13:56:00
5:56 AM,-17.0,-22.0,78,29.75,10.0,Calm,Calm,-,N/A,,Overcast,0,2013-01-08 14:56:00
6:29 AM,-16.6,-22.0,76,29.71,10.0,Calm,Calm,-,N/A,,Scattered Clouds,0,2013-01-08 15:29:00
6:55 AM,-16.6,-22.0,76,29.75,10.0,Calm,Calm,-,N/A,,Scattered Clouds,0,2013-01-08 15:55:00
7:08 AM,-16.6,-20.2,84,29.73,10.0,Calm,Calm,-,N/A,,Mostly Cloudy,0,2013-01-08 16:08:00
7:55 AM,-13.0,-18.4,77,29.81,10.0,Calm,Calm,-,N/A,,Mostly Cloudy,0,2013-01-08 16:55:00
8:10 AM,-11.2,-18.4,70,29.77,10.0,Calm,Calm,-,N/A,,Mostly Cloudy,0,2013-01-08 17:10:00
8:48 AM,-9.4,-16.6,71,29.79,10.0,Calm,Calm,-,N/A,Snow,Light Snow,0,2013-01-08 17:48:00
8:55 AM,-9.4,-16.6,71,30.73,10.0,Calm,Calm,-,N/A,Snow,Light Snow,0,2013-01-08 17:55:00
9:55 AM,-9.4,-14.8,77,29.86,10.0,Calm,Calm,-,N/A,Snow,Light Snow,0,2013-01-08 18:55:00
10:30 AM,-7.6,-11.2,84,29.84,7.0,Calm,Calm,-,N/A,Snow,Light Snow,0,2013-01-08 19:30:00
10:55 AM,-7.6,-11.2,84,29.91,7.0,Calm,Calm,-,N/A,Snow,Light Snow,0,2013-01-08 19:55:00
11:55 AM,-5.8,-11.2,77,29.94,4.0,Calm,Calm,-,N/A,Snow,Light Snow,0,2013-01-08 20:55:00
12:55 PM,-4.0,-9.4,78,29.96,4.0,Calm,Calm,-,N/A,Snow,Light Snow,0,2013-01-08 21:55:00
1:55 PM,-4.0,-7.6,85,29.98,4.0,Calm,Calm,-,N/A,Snow,Light Snow,0,2013-01-08 22:55:00
2:55 PM,-2.2,-7.6,78,30.00,3.0,SSE,4.6,-,N/A,Snow,Light Snow,150,2013-01-08 23:55:00
3:55 PM,-2.2,-7.6,78,30.02,2.5,Calm,Calm,-,N/A,Snow,Light Snow,0,2013-01-09 00:55:00
4:02 PM,-2.2,-7.6,78,29.97,1.5,Calm,Calm,-,N/A,Snow,Light Snow,0,2013-01-09 01:02:00
4:12 PM,-2.2,-7.6,78,29.97,2.0,Calm,Calm,-,N/A,Snow,Light Snow,0,2013-01-09 01:12:00
4:30 PM,-2.2,-7.6,78,29.98,3.0,Calm,Calm,-,N/A,Snow,Light Snow,0,2013-01-09 01:30:00
4:38 PM,-2.2,-7.6,78,29.98,4.0,ENE,3.5,-,N/A,Snow,Light Snow,70,2013-01-09 01:38:00
4:55 PM,-2.2,-7.6,78,30.04,3.0,ENE,3.5,-,N/A,Snow,Light Snow,60,2013-01-09 01:55:00
5:45 PM,-2.2,-7.6,78,30.00,2.0,ENE,3.5,-,N/A,Snow,Light Snow,60,2013-01-09 02:45:00
5:55 PM,-2.2,-7.6,78,30.05,2.0,ENE,3.5,-,N/A,Snow,Light Snow,70,2013-01-09 02:55:00
6:23 PM,-2.2,-5.8,85,30.01,1.5,Calm,Calm,-,N/A,Snow,Light Snow,0,2013-01-09 03:23:00
6:55 PM,-0.4,-5.8,78,30.07,1.5,Calm,Calm,-,N/A,Snow,Light Snow,0,2013-01-09 03:55:00
7:55 PM,-0.4,-5.8,78,30.09,5.0,Calm,Calm,-,N/A,Snow,Light Snow,0,2013-01-09 04:55:00
8:55 PM,-0.4,-5.8,78,30.10,3.0,Calm,Calm,-,N/A,Snow,Light Snow,0,2013-01-09 05:55:00
9:55 PM,1.4,-5.8,72,30.12,3.0,Calm,Calm,-,N/A,Snow,Light Snow,0,2013-01-09 06:55:00
10:06 PM,-0.4,-5.8,78,30.08,2.5,Calm,Calm,-,0.00,Snow,Light Snow,0,2013-01-09 07:06:00
10:09 PM,-0.4,-5.8,78,30.08,-9999.0,Calm,Calm,-,0.00,Snow,Light Snow,0,2013-01-09 07:09:00
10:47 PM,-0.4,-5.8,78,30.10,-9999.0,Calm,Calm,-,0.00,Snow,Light Snow,0,2013-01-09 07:47:00
10:56 PM,-2.0,-6.0,83,30.14,3.0,Calm,Calm,-,0.00,Snow,Light Snow,0,2013-01-09 07:56:00
11:16 PM,-2.2,-7.6,78,30.10,4.0,Calm,Calm,-,0.00,Snow,Light Snow,0,2013-01-09 08:16:00
11:56 PM,-2.9,-8.0,79,30.16,10.0,Calm,Calm,-,0.00,,Overcast,0,2013-01-09 08:56:00